Year,Month,Day,Hour,Minute,Value (Times are PST for windgust in km/hr)
2015,09,13,00,00,25.70
2015,09,13,00,01,20.90
2015,09,13,00,02,32.20
2015,09,13,00,03,32.20
2015,09,13,00,04,27.40
2015,09,13,00,05,32.20
2015,09,13,00,06,20.90
2015,09,13,00,07,17.70
2015,09,13,00,08,19.30
2015,09,13,00,09,27.40
2015,09,13,00,10,24.20
2015,09,13,00,11,24.20
2015,09,13,00,12,27.40
2015,09,13,00,13,29.00
2015,09,13,00,14,33.80
2015,09,13,00,15,22.50
2015,09,13,00,16,22.50
2015,09,13,00,17,27.40
2015,09,13,00,18,24.20
2015,09,13,00,19,24.20
2015,09,13,00,20,24.20
2015,09,13,00,21,24.20
2015,09,13,00,22,24.20
2015,09,13,00,23,22.50
2015,09,13,00,24,27.40
2015,09,13,00,25,29.00
2015,09,13,00,26,22.50
2015,09,13,00,27,29.00
2015,09,13,00,28,17.70
2015,09,13,00,29,19.30
2015,09,13,00,30,17.70
2015,09,13,00,31,19.30
2015,09,13,00,32,19.30
2015,09,13,00,33,20.90
2015,09,13,00,34,14.50
2015,09,13,00,35,22.50
2015,09,13,00,36,20.90
2015,09,13,00,37,14.50
2015,09,13,00,38,22.50
2015,09,13,00,39,22.50
2015,09,13,00,40,20.90
2015,09,13,00,41,24.20
2015,09,13,00,42,29.00
2015,09,13,00,43,29.00
2015,09,13,00,44,29.00
2015,09,13,00,45,27.40
2015,09,13,00,46,22.50
2015,09,13,00,47,30.60
2015,09,13,00,48,20.90
2015,09,13,00,49,22.50
2015,09,13,00,50,24.20
2015,09,13,00,51,22.50
2015,09,13,00,52,29.00
2015,09,13,00,53,22.50
2015,09,13,00,54,32.20
2015,09,13,00,55,20.90
2015,09,13,00,56,20.90
2015,09,13,00,57,25.70
2015,09,13,00,58,19.30
2015,09,13,00,59,27.40
2015,09,13,01,00,24.20
2015,09,13,01,01,29.00
2015,09,13,01,02,20.90
2015,09,13,01,03,20.90
2015,09,13,01,04,20.90
2015,09,13,01,05,22.50
2015,09,13,01,06,20.90
2015,09,13,01,07,22.50
2015,09,13,01,08,29.00
2015,09,13,01,09,27.40
2015,09,13,01,10,22.50
2015,09,13,01,11,24.20
2015,09,13,01,12,24.20
2015,09,13,01,13,16.10
2015,09,13,01,14,19.30
2015,09,13,01,15,22.50
2015,09,13,01,16,25.70
2015,09,13,01,17,22.50
2015,09,13,01,18,17.70
2015,09,13,01,19,19.30
2015,09,13,01,20,20.90
2015,09,13,01,21,16.10
2015,09,13,01,22,12.90
2015,09,13,01,23,14.50
2015,09,13,01,24,14.50
2015,09,13,01,25,24.20
2015,09,13,01,26,19.30
2015,09,13,01,27,22.50
2015,09,13,01,28,24.20
2015,09,13,01,29,24.20
2015,09,13,01,30,17.70
2015,09,13,01,31,19.30
2015,09,13,01,32,17.70
2015,09,13,01,33,14.50
2015,09,13,01,34,12.90
2015,09,13,01,35,16.10
2015,09,13,01,36,20.90
2015,09,13,01,37,16.10
2015,09,13,01,38,20.90
2015,09,13,01,39,25.70
2015,09,13,01,40,22.50
2015,09,13,01,41,11.30
2015,09,13,01,42,20.90
2015,09,13,01,43,20.90
2015,09,13,01,44,16.10
2015,09,13,01,45,16.10
2015,09,13,01,46,14.50
2015,09,13,01,47,9.60
2015,09,13,01,48,24.20
2015,09,13,01,49,20.90
2015,09,13,01,50,17.70
2015,09,13,01,51,14.50
2015,09,13,01,52,14.50
2015,09,13,01,53,22.50
2015,09,13,01,54,19.30
2015,09,13,01,55,12.90
2015,09,13,01,56,29.00
2015,09,13,01,57,29.00
2015,09,13,01,58,25.70
2015,09,13,01,59,20.90
2015,09,13,02,00,17.70
2015,09,13,02,01,19.30
2015,09,13,02,02,25.70
2015,09,13,02,03,27.40
2015,09,13,02,04,19.30
2015,09,13,02,05,16.10
2015,09,13,02,06,12.90
2015,09,13,02,07,17.70
2015,09,13,02,08,22.50
2015,09,13,02,09,24.20
2015,09,13,02,10,24.20
2015,09,13,02,11,16.10
2015,09,13,02,12,20.90
2015,09,13,02,13,16.10
2015,09,13,02,14,17.70
2015,09,13,02,15,25.70
2015,09,13,02,16,20.90
2015,09,13,02,17,20.90
2015,09,13,02,18,19.30
2015,09,13,02,19,20.90
2015,09,13,02,20,16.10
2015,09,13,02,21,14.50
2015,09,13,02,22,14.50
2015,09,13,02,23,17.70
2015,09,13,02,24,14.50
2015,09,13,02,25,22.50
2015,09,13,02,26,19.30
2015,09,13,02,27,14.50
2015,09,13,02,28,19.30
2015,09,13,02,29,22.50
2015,09,13,02,30,27.40
2015,09,13,02,31,17.70
2015,09,13,02,32,22.50
2015,09,13,02,33,25.70
2015,09,13,02,34,30.60
2015,09,13,02,35,29.00
2015,09,13,02,36,35.40
2015,09,13,02,37,29.00
2015,09,13,02,38,24.20
2015,09,13,02,39,24.20
2015,09,13,02,40,30.60
2015,09,13,02,41,30.60
2015,09,13,02,42,24.20
2015,09,13,02,43,29.00
2015,09,13,02,44,29.00
2015,09,13,02,45,24.20
2015,09,13,02,46,35.40
2015,09,13,02,47,25.70
2015,09,13,02,48,29.00
2015,09,13,02,49,30.60
2015,09,13,02,50,27.40
2015,09,13,02,51,32.20
2015,09,13,02,52,29.00
2015,09,13,02,53,30.60
2015,09,13,02,54,24.20
2015,09,13,02,55,22.50
2015,09,13,02,56,25.70
2015,09,13,02,57,24.20
2015,09,13,02,58,22.50
2015,09,13,02,59,24.20
2015,09,13,03,00,20.90
2015,09,13,03,01,32.20
2015,09,13,03,02,27.40
2015,09,13,03,03,33.80
2015,09,13,03,04,24.20
2015,09,13,03,05,25.70
2015,09,13,03,06,29.00
2015,09,13,03,07,27.40
2015,09,13,03,08,24.20
2015,09,13,03,09,22.50
2015,09,13,03,10,27.40
2015,09,13,03,11,29.00
2015,09,13,03,12,29.00
2015,09,13,03,13,30.60
2015,09,13,03,14,27.40
2015,09,13,03,15,25.70
2015,09,13,03,16,32.20
2015,09,13,03,17,32.20
2015,09,13,03,18,30.60
2015,09,13,03,19,35.40
2015,09,13,03,20,25.70
2015,09,13,03,21,29.00
2015,09,13,03,22,30.60
2015,09,13,03,23,24.20
2015,09,13,03,24,32.20
2015,09,13,03,25,32.20
2015,09,13,03,26,24.20
2015,09,13,03,27,25.70
2015,09,13,03,28,35.40
2015,09,13,03,29,32.20
2015,09,13,03,30,27.40
2015,09,13,03,31,43.50
2015,09,13,03,32,35.40
2015,09,13,03,33,30.60
2015,09,13,03,34,25.70
2015,09,13,03,35,25.70
2015,09,13,03,36,19.30
2015,09,13,03,37,29.00
2015,09,13,03,38,29.00
2015,09,13,03,39,29.00
2015,09,13,03,40,24.20
2015,09,13,03,41,20.90
2015,09,13,03,42,22.50
2015,09,13,03,43,25.70
2015,09,13,03,44,22.50
2015,09,13,03,45,30.60
2015,09,13,03,46,30.60
2015,09,13,03,47,24.20
2015,09,13,03,48,25.70
2015,09,13,03,49,27.40
2015,09,13,03,50,29.00
2015,09,13,03,51,19.30
2015,09,13,03,52,27.40
2015,09,13,03,53,24.20
2015,09,13,03,54,33.80
2015,09,13,03,55,29.00
2015,09,13,03,56,29.00
2015,09,13,03,57,32.20
2015,09,13,03,58,24.20
2015,09,13,03,59,32.20
2015,09,13,04,00,32.20
2015,09,13,04,01,27.40
2015,09,13,04,02,27.40
2015,09,13,04,03,30.60
2015,09,13,04,04,29.00
2015,09,13,04,05,32.20
2015,09,13,04,06,35.40
2015,09,13,04,07,29.00
2015,09,13,04,08,24.20
2015,09,13,04,09,40.20
2015,09,13,04,10,27.40
2015,09,13,04,11,27.40
2015,09,13,04,12,32.20
2015,09,13,04,13,25.70
2015,09,13,04,14,24.20
2015,09,13,04,15,29.00
2015,09,13,04,16,24.20
2015,09,13,04,17,29.00
2015,09,13,04,18,29.00
2015,09,13,04,19,30.60
2015,09,13,04,20,30.60
2015,09,13,04,21,35.40
2015,09,13,04,22,41.80
2015,09,13,04,23,27.40
2015,09,13,04,24,37.00
2015,09,13,04,25,41.80
2015,09,13,04,26,40.20
2015,09,13,04,27,35.40
2015,09,13,04,28,37.00
2015,09,13,04,29,41.80
2015,09,13,04,30,25.70
2015,09,13,04,31,30.60
2015,09,13,04,32,32.20
2015,09,13,04,33,33.80
2015,09,13,04,34,25.70
2015,09,13,04,35,25.70
2015,09,13,04,36,33.80
2015,09,13,04,37,29.00
2015,09,13,04,38,25.70
2015,09,13,04,39,35.40
2015,09,13,04,40,30.60
2015,09,13,04,41,22.50
2015,09,13,04,42,25.70
2015,09,13,04,43,27.40
2015,09,13,04,44,30.60
2015,09,13,04,45,30.60
2015,09,13,04,46,17.70
2015,09,13,04,47,24.20
2015,09,13,04,48,30.60
2015,09,13,04,49,24.20
2015,09,13,04,50,29.00
2015,09,13,04,51,25.70
2015,09,13,04,52,22.50
2015,09,13,04,53,22.50
2015,09,13,04,54,27.40
2015,09,13,04,55,17.70
2015,09,13,04,56,30.60
2015,09,13,04,57,25.70
2015,09,13,04,58,29.00
2015,09,13,04,59,30.60
2015,09,13,05,00,29.00
2015,09,13,05,01,20.90
2015,09,13,05,02,25.70
2015,09,13,05,03,25.70
2015,09,13,05,04,24.20
2015,09,13,05,05,20.90
2015,09,13,05,06,17.70
2015,09,13,05,07,32.20
2015,09,13,05,08,29.00
2015,09,13,05,09,24.20
2015,09,13,05,10,29.00
2015,09,13,05,11,27.40
2015,09,13,05,12,24.20
2015,09,13,05,13,30.60
2015,09,13,05,14,25.70
2015,09,13,05,15,24.20
2015,09,13,05,16,25.70
2015,09,13,05,17,22.50
2015,09,13,05,18,24.20
2015,09,13,05,19,17.70
2015,09,13,05,20,30.60
2015,09,13,05,21,24.20
2015,09,13,05,22,25.70
2015,09,13,05,23,22.50
2015,09,13,05,24,22.50
2015,09,13,05,25,29.00
2015,09,13,05,26,24.20
2015,09,13,05,27,24.20
2015,09,13,05,28,25.70
2015,09,13,05,29,25.70
2015,09,13,05,30,25.70
2015,09,13,05,31,27.40
2015,09,13,05,32,25.70
2015,09,13,05,33,22.50
2015,09,13,05,34,29.00
2015,09,13,05,35,24.20
2015,09,13,05,36,22.50
2015,09,13,05,37,24.20
2015,09,13,05,38,22.50
2015,09,13,05,39,27.40
2015,09,13,05,40,20.90
2015,09,13,05,41,20.90
2015,09,13,05,42,20.90
2015,09,13,05,43,19.30
2015,09,13,05,44,19.30
2015,09,13,05,45,17.70
2015,09,13,05,46,24.20
2015,09,13,05,47,25.70
2015,09,13,05,48,27.40
2015,09,13,05,49,25.70
2015,09,13,05,50,30.60
2015,09,13,05,51,25.70
2015,09,13,05,52,30.60
2015,09,13,05,53,22.50
2015,09,13,05,54,22.50
2015,09,13,05,55,22.50
2015,09,13,05,56,25.70
2015,09,13,05,57,27.40
2015,09,13,05,58,25.70
2015,09,13,05,59,22.50
2015,09,13,06,00,22.50
2015,09,13,06,01,22.50
2015,09,13,06,02,25.70
2015,09,13,06,03,24.20
2015,09,13,06,04,29.00
2015,09,13,06,05,29.00
2015,09,13,06,06,29.00
2015,09,13,06,07,27.40
2015,09,13,06,08,25.70
2015,09,13,06,09,24.20
2015,09,13,06,10,22.50
2015,09,13,06,11,25.70
2015,09,13,06,12,27.40
2015,09,13,06,13,25.70
2015,09,13,06,14,22.50
2015,09,13,06,15,19.30
2015,09,13,06,16,25.70
2015,09,13,06,17,19.30
2015,09,13,06,18,19.30
2015,09,13,06,19,22.50
2015,09,13,06,20,20.90
2015,09,13,06,21,25.70
2015,09,13,06,22,25.70
2015,09,13,06,23,29.00
2015,09,13,06,24,22.50
2015,09,13,06,25,17.70
2015,09,13,06,26,20.90
2015,09,13,06,27,20.90
2015,09,13,06,28,20.90
2015,09,13,06,29,22.50
2015,09,13,06,30,25.70
2015,09,13,06,31,22.50
2015,09,13,06,32,25.70
2015,09,13,06,33,25.70
2015,09,13,06,34,25.70
2015,09,13,06,35,25.70
2015,09,13,06,36,20.90
2015,09,13,06,37,22.50
2015,09,13,06,38,24.20
2015,09,13,06,39,24.20
2015,09,13,06,40,22.50
2015,09,13,06,41,25.70
2015,09,13,06,42,22.50
2015,09,13,06,43,22.50
2015,09,13,06,44,22.50
2015,09,13,06,45,19.30
2015,09,13,06,46,19.30
2015,09,13,06,47,16.10
2015,09,13,06,48,19.30
2015,09,13,06,49,25.70
2015,09,13,06,50,20.90
2015,09,13,06,51,19.30
2015,09,13,06,52,20.90
2015,09,13,06,53,25.70
2015,09,13,06,54,27.40
2015,09,13,06,55,22.50
2015,09,13,06,56,22.50
2015,09,13,06,57,22.50
2015,09,13,06,58,25.70
2015,09,13,06,59,20.90
2015,09,13,07,00,24.20
2015,09,13,07,01,20.90
2015,09,13,07,02,25.70
2015,09,13,07,03,20.90
2015,09,13,07,04,20.90
2015,09,13,07,05,19.30
2015,09,13,07,06,19.30
2015,09,13,07,07,16.10
2015,09,13,07,08,19.30
2015,09,13,07,09,16.10
2015,09,13,07,10,19.30
2015,09,13,07,11,22.50
2015,09,13,07,12,20.90
2015,09,13,07,13,19.30
2015,09,13,07,14,17.70
2015,09,13,07,15,20.90
2015,09,13,07,16,20.90
2015,09,13,07,17,19.30
2015,09,13,07,18,16.10
2015,09,13,07,19,20.90
2015,09,13,07,20,22.50
2015,09,13,07,21,19.30
2015,09,13,07,22,24.20
2015,09,13,07,23,19.30
2015,09,13,07,24,20.90
2015,09,13,07,25,20.90
2015,09,13,07,26,16.10
2015,09,13,07,27,14.50
2015,09,13,07,28,22.50
2015,09,13,07,29,19.30
2015,09,13,07,30,17.70
2015,09,13,07,31,20.90
2015,09,13,07,32,22.50
2015,09,13,07,33,17.70
2015,09,13,07,34,17.70
2015,09,13,07,35,19.30
2015,09,13,07,36,19.30
2015,09,13,07,37,20.90
2015,09,13,07,38,22.50
2015,09,13,07,39,19.30
2015,09,13,07,40,14.50
2015,09,13,07,41,14.50
2015,09,13,07,42,16.10
2015,09,13,07,43,17.70
2015,09,13,07,44,17.70
2015,09,13,07,45,17.70
2015,09,13,07,46,17.70
2015,09,13,07,47,17.70
2015,09,13,07,48,16.10
2015,09,13,07,49,16.10
2015,09,13,07,50,19.30
2015,09,13,07,51,14.50
2015,09,13,07,52,17.70
2015,09,13,07,53,19.30
2015,09,13,07,54,17.70
2015,09,13,07,55,14.50
2015,09,13,07,56,17.70
2015,09,13,07,57,19.30
2015,09,13,07,58,17.70
2015,09,13,07,59,19.30
2015,09,13,08,00,16.10
2015,09,13,08,01,19.30
2015,09,13,08,02,24.20
2015,09,13,08,03,24.20
2015,09,13,08,04,16.10
2015,09,13,08,05,14.50
2015,09,13,08,06,17.70
2015,09,13,08,07,20.90
2015,09,13,08,08,24.20
2015,09,13,08,09,22.50
2015,09,13,08,10,24.20
2015,09,13,08,11,19.30
2015,09,13,08,12,20.90
2015,09,13,08,13,17.70
2015,09,13,08,14,19.30
2015,09,13,08,15,22.50
2015,09,13,08,16,20.90
2015,09,13,08,17,19.30
2015,09,13,08,18,27.40
2015,09,13,08,19,19.30
2015,09,13,08,20,22.50
2015,09,13,08,21,22.50
2015,09,13,08,22,25.70
2015,09,13,08,23,27.40
2015,09,13,08,24,27.40
2015,09,13,08,25,25.70
2015,09,13,08,26,24.20
2015,09,13,08,27,22.50
2015,09,13,08,28,22.50
2015,09,13,08,29,20.90
2015,09,13,08,30,25.70
2015,09,13,08,31,25.70
2015,09,13,08,32,25.70
2015,09,13,08,33,27.40
2015,09,13,08,34,22.50
2015,09,13,08,35,25.70
2015,09,13,08,36,29.00
2015,09,13,08,37,35.40
2015,09,13,08,38,29.00
2015,09,13,08,39,32.20
2015,09,13,08,40,35.40
2015,09,13,08,41,38.60
2015,09,13,08,42,37.00
2015,09,13,08,43,22.50
2015,09,13,08,44,24.20
2015,09,13,08,45,24.20
2015,09,13,08,46,27.40
2015,09,13,08,47,41.80
2015,09,13,08,48,48.30
2015,09,13,08,49,40.20
2015,09,13,08,50,37.00
2015,09,13,08,51,30.60
2015,09,13,08,52,29.00
2015,09,13,08,53,33.80
2015,09,13,08,54,46.70
2015,09,13,08,55,48.30
2015,09,13,08,56,53.10
2015,09,13,08,57,41.80
2015,09,13,08,58,40.20
2015,09,13,08,59,43.50
2015,09,13,09,00,27.40
2015,09,13,09,01,30.60
2015,09,13,09,02,35.40
2015,09,13,09,03,29.00
2015,09,13,09,04,40.20
2015,09,13,09,05,32.20
2015,09,13,09,06,27.40
2015,09,13,09,07,22.50
2015,09,13,09,08,33.80
2015,09,13,09,09,40.20
2015,09,13,09,10,37.00
2015,09,13,09,11,35.40
2015,09,13,09,12,38.60
2015,09,13,09,13,37.00
2015,09,13,09,14,35.40
2015,09,13,09,15,33.80
2015,09,13,09,16,40.20
2015,09,13,09,17,40.20
2015,09,13,09,18,30.60
2015,09,13,09,19,41.80
2015,09,13,09,20,41.80
2015,09,13,09,21,29.00
2015,09,13,09,22,45.10
2015,09,13,09,23,45.10
2015,09,13,09,24,37.00
2015,09,13,09,25,33.80
2015,09,13,09,26,32.20
2015,09,13,09,27,30.60
2015,09,13,09,28,33.80
2015,09,13,09,29,29.00
2015,09,13,09,30,19.30
2015,09,13,09,31,22.50
2015,09,13,09,32,29.00
2015,09,13,09,33,30.60
2015,09,13,09,34,40.20
2015,09,13,09,35,46.70
2015,09,13,09,36,38.60
2015,09,13,09,37,29.00
2015,09,13,09,38,29.00
2015,09,13,09,39,37.00
2015,09,13,09,40,37.00
2015,09,13,09,41,46.70
2015,09,13,09,42,54.70
2015,09,13,09,43,43.50
2015,09,13,09,44,48.30
2015,09,13,09,45,32.20
2015,09,13,09,46,32.20
2015,09,13,09,47,41.80
2015,09,13,09,48,46.70
2015,09,13,09,49,40.20
2015,09,13,09,50,40.20
2015,09,13,09,51,46.70
2015,09,13,09,52,43.50
2015,09,13,09,53,29.00
2015,09,13,09,54,37.00
2015,09,13,09,55,37.00
2015,09,13,09,56,38.60
2015,09,13,09,57,33.80
2015,09,13,09,58,35.40
2015,09,13,09,59,32.20
2015,09,13,10,00,33.80
2015,09,13,10,01,33.80
2015,09,13,10,02,27.40
2015,09,13,10,03,27.40
2015,09,13,10,04,41.80
2015,09,13,10,05,40.20
2015,09,13,10,06,41.80
2015,09,13,10,07,45.10
2015,09,13,10,08,45.10
2015,09,13,10,09,48.30
2015,09,13,10,10,30.60
2015,09,13,10,11,57.90
2015,09,13,10,12,43.50
2015,09,13,10,13,51.50
2015,09,13,10,14,43.50
2015,09,13,10,15,38.60
2015,09,13,10,16,45.10
2015,09,13,10,17,41.80
2015,09,13,10,18,45.10
2015,09,13,10,19,43.50
2015,09,13,10,20,43.50
2015,09,13,10,21,45.10
2015,09,13,10,22,29.00
2015,09,13,10,23,29.00
2015,09,13,10,24,37.00
2015,09,13,10,25,48.30
2015,09,13,10,26,41.80
2015,09,13,10,27,32.20
2015,09,13,10,28,37.00
2015,09,13,10,29,29.00
2015,09,13,10,30,51.50
2015,09,13,10,31,40.20
2015,09,13,10,32,46.70
2015,09,13,10,33,38.60
2015,09,13,10,34,49.90
2015,09,13,10,35,43.50
2015,09,13,10,36,46.70
2015,09,13,10,37,41.80
2015,09,13,10,38,43.50
2015,09,13,10,39,48.30
2015,09,13,10,40,56.30
2015,09,13,10,41,40.20
2015,09,13,10,42,37.00
2015,09,13,10,43,45.10
2015,09,13,10,44,45.10
2015,09,13,10,45,32.20
2015,09,13,10,46,35.40
2015,09,13,10,47,33.80
2015,09,13,10,48,33.80
2015,09,13,10,49,32.20
2015,09,13,10,50,33.80
2015,09,13,10,51,35.40
2015,09,13,10,52,32.20
2015,09,13,10,53,46.70
2015,09,13,10,54,56.30
2015,09,13,10,55,51.50
2015,09,13,10,56,45.10
2015,09,13,10,57,43.50
2015,09,13,10,58,35.40
2015,09,13,10,59,41.80
2015,09,13,11,00,41.80
2015,09,13,11,01,46.70
2015,09,13,11,02,40.20
2015,09,13,11,03,48.30
2015,09,13,11,04,46.70
2015,09,13,11,05,45.10
2015,09,13,11,06,40.20
2015,09,13,11,07,43.50
2015,09,13,11,08,38.60
2015,09,13,11,09,43.50
2015,09,13,11,10,48.30
2015,09,13,11,11,45.10
2015,09,13,11,12,48.30
2015,09,13,11,13,48.30
2015,09,13,11,14,51.50
2015,09,13,11,15,43.50
2015,09,13,11,16,41.80
2015,09,13,11,17,49.90
2015,09,13,11,18,49.90
2015,09,13,11,19,43.50
2015,09,13,11,20,38.60
2015,09,13,11,21,25.70
2015,09,13,11,22,22.50
2015,09,13,11,23,38.60
2015,09,13,11,24,30.60
2015,09,13,11,25,32.20
2015,09,13,11,26,35.40
2015,09,13,11,27,38.60
2015,09,13,11,28,32.20
2015,09,13,11,29,27.40
2015,09,13,11,30,30.60
2015,09,13,11,31,30.60
2015,09,13,11,32,29.00
2015,09,13,11,33,30.60
2015,09,13,11,34,27.40
2015,09,13,11,35,38.60
2015,09,13,11,36,40.20
2015,09,13,11,37,46.70
2015,09,13,11,38,29.00
2015,09,13,11,39,40.20
2015,09,13,11,40,33.80
2015,09,13,11,41,40.20
2015,09,13,11,42,38.60
2015,09,13,11,43,40.20
2015,09,13,11,44,37.00
2015,09,13,11,45,37.00
2015,09,13,11,46,30.60
2015,09,13,11,47,30.60
2015,09,13,11,48,37.00
2015,09,13,11,49,25.70
2015,09,13,11,50,48.30
2015,09,13,11,51,40.20
2015,09,13,11,52,38.60
2015,09,13,11,53,33.80
2015,09,13,11,54,43.50
2015,09,13,11,55,40.20
2015,09,13,11,56,30.60
2015,09,13,11,57,35.40
2015,09,13,11,58,41.80
2015,09,13,11,59,46.70
2015,09,13,12,00,43.50
2015,09,13,12,01,48.30
2015,09,13,12,02,40.20
2015,09,13,12,03,43.50
2015,09,13,12,04,38.60
2015,09,13,12,05,24.20
2015,09,13,12,06,56.30
2015,09,13,12,07,46.70
2015,09,13,12,08,35.40
2015,09,13,12,09,48.30
2015,09,13,12,10,33.80
2015,09,13,12,11,40.20
2015,09,13,12,12,49.90
2015,09,13,12,13,53.10
2015,09,13,12,14,51.50
2015,09,13,12,15,41.80
2015,09,13,12,16,37.00
2015,09,13,12,17,38.60
2015,09,13,12,18,27.40
2015,09,13,12,19,46.70
2015,09,13,12,20,38.60
2015,09,13,12,21,41.80
2015,09,13,12,22,41.80
2015,09,13,12,23,33.80
2015,09,13,12,24,48.30
2015,09,13,12,25,38.60
2015,09,13,12,26,41.80
2015,09,13,12,27,48.30
2015,09,13,12,28,33.80
2015,09,13,12,29,35.40
2015,09,13,12,30,32.20
2015,09,13,12,31,29.00
2015,09,13,12,32,30.60
2015,09,13,12,33,27.40
2015,09,13,12,34,38.60
2015,09,13,12,35,30.60
2015,09,13,12,36,41.80
2015,09,13,12,37,38.60
2015,09,13,12,38,53.10
2015,09,13,12,39,43.50
2015,09,13,12,40,41.80
2015,09,13,12,41,29.00
2015,09,13,12,42,30.60
2015,09,13,12,43,43.50
2015,09,13,12,44,37.00
2015,09,13,12,45,29.00
2015,09,13,12,46,33.80
2015,09,13,12,47,33.80
2015,09,13,12,48,32.20
2015,09,13,12,49,25.70
2015,09,13,12,50,37.00
2015,09,13,12,51,32.20
2015,09,13,12,52,30.60
2015,09,13,12,53,40.20
2015,09,13,12,54,41.80
2015,09,13,12,55,35.40
2015,09,13,12,56,24.20
2015,09,13,12,57,24.20
2015,09,13,12,58,20.90
2015,09,13,12,59,29.00
2015,09,13,13,00,37.00
2015,09,13,13,01,32.20
2015,09,13,13,02,25.70
2015,09,13,13,03,32.20
2015,09,13,13,04,33.80
2015,09,13,13,05,37.00
2015,09,13,13,06,24.20
2015,09,13,13,07,22.50
2015,09,13,13,08,38.60
2015,09,13,13,09,37.00
2015,09,13,13,10,48.30
2015,09,13,13,11,38.60
2015,09,13,13,12,29.00
2015,09,13,13,13,35.40
2015,09,13,13,14,32.20
2015,09,13,13,15,41.80
2015,09,13,13,16,43.50
2015,09,13,13,17,40.20
2015,09,13,13,18,37.00
2015,09,13,13,19,29.00
2015,09,13,13,20,40.20
2015,09,13,13,21,32.20
2015,09,13,13,22,32.20
2015,09,13,13,23,33.80
2015,09,13,13,24,30.60
2015,09,13,13,25,30.60
2015,09,13,13,26,40.20
2015,09,13,13,27,38.60
2015,09,13,13,28,41.80
2015,09,13,13,29,33.80
2015,09,13,13,30,41.80
2015,09,13,13,31,43.50
2015,09,13,13,32,46.70
2015,09,13,13,33,32.20
2015,09,13,13,34,33.80
2015,09,13,13,35,30.60
2015,09,13,13,36,45.10
2015,09,13,13,37,38.60
2015,09,13,13,38,35.40
2015,09,13,13,39,40.20
2015,09,13,13,40,41.80
2015,09,13,13,41,30.60
2015,09,13,13,42,30.60
2015,09,13,13,43,37.00
2015,09,13,13,44,33.80
2015,09,13,13,45,30.60
2015,09,13,13,46,32.20
2015,09,13,13,47,37.00
2015,09,13,13,48,30.60
2015,09,13,13,49,35.40
2015,09,13,13,50,27.40
2015,09,13,13,51,33.80
2015,09,13,13,52,37.00
2015,09,13,13,53,40.20
2015,09,13,13,54,38.60
2015,09,13,13,55,33.80
2015,09,13,13,56,37.00
2015,09,13,13,57,33.80
2015,09,13,13,58,32.20
2015,09,13,13,59,32.20
2015,09,13,14,00,37.00
2015,09,13,14,01,37.00
2015,09,13,14,02,37.00
2015,09,13,14,03,40.20
2015,09,13,14,04,32.20
2015,09,13,14,05,37.00
2015,09,13,14,06,30.60
2015,09,13,14,07,32.20
2015,09,13,14,08,37.00
2015,09,13,14,09,51.50
2015,09,13,14,10,37.00
2015,09,13,14,11,38.60
2015,09,13,14,12,30.60
2015,09,13,14,13,27.40
2015,09,13,14,14,29.00
2015,09,13,14,15,45.10
2015,09,13,14,16,45.10
2015,09,13,14,17,43.50
2015,09,13,14,18,25.70
2015,09,13,14,19,27.40
2015,09,13,14,20,30.60
2015,09,13,14,21,35.40
2015,09,13,14,22,30.60
2015,09,13,14,23,48.30
2015,09,13,14,24,45.10
2015,09,13,14,25,38.60
2015,09,13,14,26,48.30
2015,09,13,14,27,35.40
2015,09,13,14,28,43.50
2015,09,13,14,29,45.10
2015,09,13,14,30,48.30
2015,09,13,14,31,41.80
2015,09,13,14,32,38.60
2015,09,13,14,33,46.70
2015,09,13,14,34,45.10
2015,09,13,14,35,40.20
2015,09,13,14,36,27.40
2015,09,13,14,37,41.80
2015,09,13,14,38,38.60
2015,09,13,14,39,35.40
2015,09,13,14,40,37.00
2015,09,13,14,41,40.20
2015,09,13,14,42,43.50
2015,09,13,14,43,30.60
2015,09,13,14,44,30.60
2015,09,13,14,45,33.80
2015,09,13,14,46,29.00
2015,09,13,14,47,25.70
2015,09,13,14,48,33.80
2015,09,13,14,49,38.60
2015,09,13,14,50,30.60
2015,09,13,14,51,48.30
2015,09,13,14,52,49.90
2015,09,13,14,53,41.80
2015,09,13,14,54,37.00
2015,09,13,14,55,43.50
2015,09,13,14,56,43.50
2015,09,13,14,57,35.40
2015,09,13,14,58,33.80
2015,09,13,14,59,32.20
2015,09,13,15,00,46.70
2015,09,13,15,01,38.60
2015,09,13,15,02,49.90
2015,09,13,15,03,33.80
2015,09,13,15,04,29.00
2015,09,13,15,05,27.40
2015,09,13,15,06,27.40
2015,09,13,15,07,22.50
2015,09,13,15,08,33.80
2015,09,13,15,09,38.60
2015,09,13,15,10,40.20
2015,09,13,15,11,32.20
2015,09,13,15,12,29.00
2015,09,13,15,13,45.10
2015,09,13,15,14,33.80
2015,09,13,15,15,37.00
2015,09,13,15,16,35.40
2015,09,13,15,17,35.40
2015,09,13,15,18,29.00
2015,09,13,15,19,33.80
2015,09,13,15,20,25.70
2015,09,13,15,21,17.70
2015,09,13,15,22,41.80
2015,09,13,15,23,38.60
2015,09,13,15,24,38.60
2015,09,13,15,25,45.10
2015,09,13,15,26,40.20
2015,09,13,15,27,43.50
2015,09,13,15,28,32.20
2015,09,13,15,29,30.60
2015,09,13,15,30,46.70
2015,09,13,15,31,45.10
2015,09,13,15,32,43.50
2015,09,13,15,33,37.00
2015,09,13,15,34,38.60
2015,09,13,15,35,37.00
2015,09,13,15,36,38.60
2015,09,13,15,37,40.20
2015,09,13,15,38,43.50
2015,09,13,15,39,46.70
2015,09,13,15,40,35.40
2015,09,13,15,41,45.10
2015,09,13,15,42,37.00
2015,09,13,15,43,35.40
2015,09,13,15,44,43.50
2015,09,13,15,45,43.50
2015,09,13,15,46,38.60
2015,09,13,15,47,35.40
2015,09,13,15,48,30.60
2015,09,13,15,49,38.60
2015,09,13,15,50,45.10
2015,09,13,15,51,40.20
2015,09,13,15,52,40.20
2015,09,13,15,53,43.50
2015,09,13,15,54,25.70
2015,09,13,15,55,45.10
2015,09,13,15,56,30.60
2015,09,13,15,57,24.20
2015,09,13,15,58,20.90
2015,09,13,15,59,53.10
2015,09,13,16,00,43.50
2015,09,13,16,01,45.10
2015,09,13,16,02,35.40
2015,09,13,16,03,40.20
2015,09,13,16,04,41.80
2015,09,13,16,05,33.80
2015,09,13,16,06,30.60
2015,09,13,16,07,40.20
2015,09,13,16,08,38.60
2015,09,13,16,09,32.20
2015,09,13,16,10,16.10
2015,09,13,16,11,33.80
2015,09,13,16,12,29.00
2015,09,13,16,13,32.20
2015,09,13,16,14,35.40
2015,09,13,16,15,38.60
2015,09,13,16,16,41.80
2015,09,13,16,17,35.40
2015,09,13,16,18,30.60
2015,09,13,16,19,45.10
2015,09,13,16,20,32.20
2015,09,13,16,21,30.60
2015,09,13,16,22,30.60
2015,09,13,16,23,22.50
2015,09,13,16,24,29.00
2015,09,13,16,25,32.20
2015,09,13,16,26,24.20
2015,09,13,16,27,25.70
2015,09,13,16,28,33.80
2015,09,13,16,29,37.00
2015,09,13,16,30,24.20
2015,09,13,16,31,27.40
2015,09,13,16,32,22.50
2015,09,13,16,33,41.80
2015,09,13,16,34,35.40
2015,09,13,16,35,32.20
2015,09,13,16,36,27.40
2015,09,13,16,37,27.40
2015,09,13,16,38,22.50
2015,09,13,16,39,32.20
2015,09,13,16,40,37.00
2015,09,13,16,41,32.20
2015,09,13,16,42,24.20
2015,09,13,16,43,22.50
2015,09,13,16,44,22.50
2015,09,13,16,45,40.20
2015,09,13,16,46,27.40
2015,09,13,16,47,29.00
2015,09,13,16,48,30.60
2015,09,13,16,49,38.60
2015,09,13,16,50,40.20
2015,09,13,16,51,37.00
2015,09,13,16,52,40.20
2015,09,13,16,53,37.00
2015,09,13,16,54,43.50
2015,09,13,16,55,45.10
2015,09,13,16,56,33.80
2015,09,13,16,57,27.40
2015,09,13,16,58,32.20
2015,09,13,16,59,35.40
2015,09,13,17,00,41.80
2015,09,13,17,01,33.80
2015,09,13,17,02,45.10
2015,09,13,17,03,41.80
2015,09,13,17,04,37.00
2015,09,13,17,05,43.50
2015,09,13,17,06,41.80
2015,09,13,17,07,33.80
2015,09,13,17,08,35.40
2015,09,13,17,09,43.50
2015,09,13,17,10,33.80
2015,09,13,17,11,48.30
2015,09,13,17,12,38.60
2015,09,13,17,13,41.80
2015,09,13,17,14,32.20
2015,09,13,17,15,33.80
2015,09,13,17,16,46.70
2015,09,13,17,17,37.00
2015,09,13,17,18,33.80
2015,09,13,17,19,33.80